User: anonymous
Location: NJAA Observatory
(40.6819°N, 74.8979°W)
Time: 19:29:15
(UTC-04:00)
Language:

Iridium 56 - Orbit

View from above orbital plane
View from above orbital plane
View from above satellite
View from above satellite

Ground track
Ground track

The orbit data is extracted from the following two-line orbital elements,

1 25170U 98010B   14110.46314015  .00000376  00000-0  12721-3 0  6869
2 25170 086.3937 112.7207 0002271 102.2183 049.8842 14.34216273846390
Epoch (UTC): 20 April 2014 11:06:55
Eccentricity: 0.0002271
inclination: 86.3937°
perigee height: 776 km
apogee height: 779 km
right ascension of ascending node: 112.7207°
argument of perigee: 102.2183°
revolutions per day: 14.34216273
mean anomaly at epoch: 49.8842°
orbit number at epoch: 84639

The dashed part of the orbit path shows where the satellite is in the earth's shadow,  

DLR